[x] [x]
.:Aeroklub Partizánske:. |  .:Fotogaléria:. |  .:Videogaléria:. |  .:Foto týždňa:. |  .:Kniha návštev:. |  .:Linky:. |  .:Moje konto:.
 MENU [x]

 METEO [x]

 FotoGaléria [x]

 Slnko [x]
LZPT Partizánske
48°37'N 18°20'E
Východ: 5:36 AM
Západ: 7:54 PM
LZIB Bratislava
48°10'N 17°12'E
Východ: 5:42 AM
Západ: 7:57 PM
LZKZ Košice
48°39'N 21°14'E
Východ: 5:25 AM
Západ: 7:42 PM

 Jazyky [x]
Vyberte jazyk rozhrania:

Slovak English German Polish


  SPRÁVY METAR - SLOVENSKO
Bratislava-IvankaLZIB 271330Z 20016KT CAVOK 24/08 Q1003 NOSIGdekóduj
Kamenica nad CirochouLZKC 011200Z 21006KT 150V290 9999 FEW053 04/M07 Q1019dekóduj
KošiceLZKZ 271330Z 21015KT CAVOK 22/09 Q1008 NOSIGdekóduj
Poprad - TatryLZTT 271330Z 22012KT 9999 BKN056 18/07 Q1008 NOSIGdekóduj
LučenecLZLU 141110Z AUTO 08009KT //// ////// 02/01 Q0994dekóduj
NitraLZNI 312000Z /////KT CAVOK 01/M02 Q1022dekóduj
PrievidzaLZPE 312000Z /////KT CAVOK M03/M04 Q1022dekóduj
PiešťanyLZPP 271330Z 18019KT CAVOK 24/07 Q1004dekóduj
SliačLZSL 271330Z 18008G19KT 130V230 9999 BKN055 22/09 Q1006dekóduj
ŽilinaLZZI 271330Z 20008KT 130V260 CAVOK 22/09 Q1005dekóduj
 FreeFly INFO [x]
COROWA 2009


COROWA 2009


COROWA 2009



 LZPT webcam [x]

 Foto týždňa [x]

 KBO SNA [x]

 Login [x]
Užívateľské meno

Heslo


Ešte nemáš konto? Môžeš si ho vytvoriť. Registrovaný užívateľ má množstvo výhod, napr. posielanie okamžitých správ iným užívateľom, posielanie komentárov s vlastným menom, možnosť pridávať fotografie do galérie...

 Kto je online [x]
Momentálne je online 17 hostí a 0 členov.

Ste anonymný užívateľ. Zaregistrovať sa môžete tu

DETAILY

 Linky [x]

 Počítadlo návštev [x]
Zaznamenali sme
34233840
strán zobrazených od júna 2003

Počet dnešných unikátnych IP adries:
0



www.freefly.sk
Powered by SzMsoft ©2003-2005. Polish translations by Cezary Dąbek. Flying server www.freefly.sk is administrated by maro@freefly.sk - www.artweb.freefly.sk
PHP-Nuke Copyright © 2004 by Francisco Burzi. This is free software, and you may redistribute it under the GPL. PHP-Nuke comes with absolutely no warranty, for details, see the license.